• In Netherlands
  • List of Countries
  • For 7 days
  • Water Temperature
  • Satellite Maps
  • Weather Map
  • Weather Widgets
  • user-avatar
    Login

    Hourly Weather Vidin

    Today, 24 June, Saturday

    Time Temperature Precipitation Wind Pressure Humidity
    00:00 +26°C° 0.3 mm 3 mps 757 mmHg 67%
    01:00 +25°C° 0.3 mm 3 mps 757 mmHg 69%
    02:00 +25°C° 0.3 mm 3 mps 757 mmHg 72%
    03:00 +25°C° 0.2 mm 3 mps 757 mmHg 73%
    04:00 +24°C° 0.2 mm 3 mps 758 mmHg 75%
    05:00 +24°C° 0.2 mm 3 mps 758 mmHg 76%
    06:00 +26°C° 0 mm 4 mps 758 mmHg 70%
    07:00 +27°C° 0 mm 4 mps 758 mmHg 64%
    08:00 +29°C° 0 mm 4 mps 758 mmHg 58%
    09:00 +30°C° 0.1 mm 5 mps 758 mmHg 52%
    10:00 +33°C° 0.1 mm 5 mps 758 mmHg 47%
    11:00 +34°C° 0.1 mm 5 mps 758 mmHg 41%
    12:00 +35°C° 0.1 mm 5 mps 758 mmHg 38%
    13:00 +36°C° 0.1 mm 5 mps 758 mmHg 35%
    14:00 +37°C° 0.1 mm 5 mps 758 mmHg 32%
    15:00 +36°C° 0 mm 5 mps 758 mmHg 32%
    16:00 +36°C° 0 mm 5 mps 757 mmHg 32%
    17:00 +36°C° 0 mm 5 mps 757 mmHg 33%
    18:00 +33°C° 0 mm 5 mps 757 mmHg 38%
    19:00 +30°C° 0 mm 4 mps 758 mmHg 43%
    20:00 +28°C° 0 mm 3 mps 758 mmHg 48%
    21:00 +26°C° 0 mm 3 mps 758 mmHg 53%
    22:00 +25°C° 0 mm 3 mps 759 mmHg 57%
    23:00 +22°C° 0 mm 3 mps 759 mmHg 62%

    Tomorrow, 25 June, Sunday

    Time Temperature Precipitation Wind Pressure Humidity
    00:00 +21°C° 0 mm 3 mps 759 mmHg 63%
    01:00 +21°C° 0 mm 2 mps 759 mmHg 65%
    02:00 +20°C° 0 mm 2 mps 759 mmHg 67%
    03:00 +19°C° 0 mm 2 mps 759 mmHg 70%
    04:00 +19°C° 0 mm 2 mps 759 mmHg 72%
    05:00 +19°C° 0 mm 1 mps 758 mmHg 75%
    06:00 +22°C° 0 mm 1 mps 758 mmHg 66%
    07:00 +25°C° 0 mm 1 mps 759 mmHg 58%
    08:00 +28°C° 0 mm 1 mps 759 mmHg 49%
    09:00 +30°C° 0 mm 1 mps 758 mmHg 45%
    10:00 +31°C° 0 mm 1 mps 758 mmHg 41%
    11:00 +33°C° 0 mm 1 mps 758 mmHg 36%
    12:00 +34°C° 0 mm 1 mps 757 mmHg 33%
    13:00 +35°C° 0 mm 1 mps 757 mmHg 30%
    14:00 +37°C° 0 mm 1 mps 756 mmHg 27%
    15:00 +36°C° 0 mm 1 mps 756 mmHg 26%
    16:00 +36°C° 0 mm 1 mps 755 mmHg 26%
    17:00 +36°C° 0 mm 1 mps 755 mmHg 26%
    18:00 +33°C° 0 mm 1 mps 755 mmHg 33%
    19:00 +30°C° 0 mm 1 mps 755 mmHg 40%
    20:00 +27°C° 0 mm 1 mps 755 mmHg 47%
    21:00 +26°C° 0 mm 1 mps 755 mmHg 50%
    22:00 +25°C° 0 mm 1 mps 755 mmHg 53%
    23:00 +24°C° 0 mm 1 mps 756 mmHg 56%

    Day after tomorrow, 26 June, Monday

    Time Temperature Precipitation Wind Pressure Humidity
    00:00 +23°C° 0.1 mm 1 mps 756 mmHg 58%
    01:00 +23°C° 0.1 mm 1 mps 756 mmHg 59%
    02:00 +22°C° 0.1 mm 1 mps 756 mmHg 61%
    03:00 +22°C° 0 mm 1 mps 756 mmHg 62%
    04:00 +22°C° 0 mm 1 mps 756 mmHg 63%
    05:00 +21°C° 0 mm 2 mps 756 mmHg 65%
    06:00 +24°C° 0 mm 2 mps 757 mmHg 63%
    07:00 +26°C° 0 mm 3 mps 757 mmHg 61%
    08:00 +28°C° 0 mm 3 mps 757 mmHg 59%
    09:00 +29°C° 0 mm 3 mps 757 mmHg 55%
    10:00 +32°C° 0 mm 4 mps 757 mmHg 52%
    11:00 +33°C° 0 mm 4 mps 757 mmHg 48%
    12:00 +34°C° 0 mm 4 mps 757 mmHg 45%
    13:00 +35°C° 0 mm 4 mps 757 mmHg 42%
    14:00 +36°C° 0 mm 4 mps 756 mmHg 39%
    15:00 +36°C° 0 mm 5 mps 756 mmHg 38%
    16:00 +36°C° 0 mm 5 mps 756 mmHg 38%
    17:00 +35°C° 0 mm 5 mps 756 mmHg 37%
    18:00 +33°C° 0 mm 4 mps 756 mmHg 42%
    19:00 +30°C° 0 mm 4 mps 756 mmHg 47%
    20:00 +28°C° 0 mm 3 mps 756 mmHg 52%
    21:00 +27°C° 0 mm 3 mps 757 mmHg 57%
    22:00 +25°C° 0 mm 3 mps 757 mmHg 61%
    23:00 +24°C° 0 mm 3 mps 757 mmHg 65%

    27 June, Tuesday

    Time Temperature Precipitation Wind Pressure Humidity
    00:00 +22°C° 0 mm 3 mps 757 mmHg 68%
    01:00 +21°C° 0 mm 3 mps 758 mmHg 70%
    02:00 +21°C° 0 mm 2 mps 758 mmHg 72%
    03:00 +20°C° 0 mm 2 mps 758 mmHg 75%
    04:00 +20°C° 0 mm 2 mps 758 mmHg 77%
    05:00 +19°C° 0 mm 2 mps 758 mmHg 79%
    06:00 +23°C° 0 mm 2 mps 758 mmHg 71%
    07:00 +25°C° 0 mm 1 mps 758 mmHg 63%
    08:00 +28°C° 0 mm 1 mps 758 mmHg 55%
    09:00 +29°C° 0 mm 1 mps 758 mmHg 51%
    10:00 +31°C° 0 mm 1 mps 758 mmHg 47%
    11:00 +33°C° 0 mm 1 mps 758 mmHg 42%
    12:00 +34°C° 0 mm 1 mps 757 mmHg 39%
    13:00 +35°C° 0 mm 1 mps 757 mmHg 36%
    14:00 +36°C° 0 mm 1 mps 756 mmHg 33%
    15:00 +36°C° 0 mm 1 mps 756 mmHg 33%
    16:00 +37°C° 0 mm 1 mps 756 mmHg 32%
    17:00 +37°C° 0 mm 1 mps 756 mmHg 32%
    18:00 +34°C° 0 mm 1 mps 756 mmHg 38%
    19:00 +31°C° 0 mm 1 mps 756 mmHg 45%
    20:00 +29°C° 0 mm 1 mps 756 mmHg 52%
    21:00 +28°C° 0.1 mm 2 mps 756 mmHg 57%
    22:00 +26°C° 0.1 mm 2 mps 756 mmHg 61%
    23:00 +25°C° 0.1 mm 2 mps 756 mmHg 66%

    28 June, Wednesday

    Time Temperature Precipitation Wind Pressure Humidity
    00:00 +24°C° 0 mm 2 mps 756 mmHg 69%
    01:00 +24°C° 0 mm 2 mps 756 mmHg 73%
    02:00 +23°C° 0 mm 2 mps 756 mmHg 77%
    03:00 +23°C° 0.1 mm 2 mps 756 mmHg 81%
    04:00 +21°C° 0.1 mm 2 mps 756 mmHg 84%
    05:00 +21°C° 0.1 mm 2 mps 756 mmHg 88%
    06:00 +24°C° 0 mm 2 mps 756 mmHg 80%
    07:00 +26°C° 0 mm 2 mps 756 mmHg 72%
    08:00 +28°C° 0 mm 2 mps 757 mmHg 65%
    09:00 +30°C° 0 mm 2 mps 756 mmHg 57%
    10:00 +32°C° 0 mm 2 mps 756 mmHg 50%
    11:00 +34°C° 0 mm 1 mps 756 mmHg 42%
    12:00 +37°C° 0 mm 2 mps 755 mmHg 38%
    13:00 +38°C° 0 mm 2 mps 755 mmHg 34%
    14:00 +39°C° 0 mm 2 mps 755 mmHg 30%
    15:00 +39°C° 0 mm 2 mps 754 mmHg 29%
    16:00 +39°C° 0 mm 2 mps 754 mmHg 28%
    17:00 +40°C° 0 mm 2 mps 754 mmHg 28%
    18:00 +37°C° 0 mm 2 mps 754 mmHg 33%
    19:00 +35°C° 0 mm 2 mps 754 mmHg 39%
    20:00 +31°C° 0 mm 2 mps 754 mmHg 45%
    21:00 +30°C° 0 mm 2 mps 754 mmHg 48%
    22:00 +29°C° 0 mm 2 mps 755 mmHg 51%
    23:00 +27°C° 0 mm 2 mps 755 mmHg 55%

    29 June, Thursday

    Time Temperature Precipitation Wind Pressure Humidity
    00:00 +26°C° 0 mm 2 mps 755 mmHg 57%
    01:00 +26°C° 0 mm 2 mps 755 mmHg 60%
    02:00 +25°C° 0 mm 2 mps 755 mmHg 63%
    03:00 +24°C° 0 mm 2 mps 755 mmHg 65%
    04:00 +24°C° 0 mm 2 mps 755 mmHg 68%
    05:00 +23°C° 0 mm 2 mps 755 mmHg 70%
    06:00 +25°C° 0 mm 2 mps 755 mmHg 63%
    07:00 +27°C° 0 mm 2 mps 755 mmHg 57%
    08:00 +29°C° 0 mm 2 mps 756 mmHg 50%
    09:00 +32°C° 0 mm 2 mps 755 mmHg 45%
    10:00 +34°C° 0 mm 1 mps 755 mmHg 39%
    11:00 +36°C° 0 mm 1 mps 755 mmHg 34%
    12:00 +37°C° 0 mm 1 mps 755 mmHg 31%
    13:00 +40°C° 0 mm 2 mps 754 mmHg 29%
    14:00 +41°C° 0 mm 2 mps 754 mmHg 26%
    15:00 +41°C° 0 mm 2 mps 754 mmHg 25%
    16:00 +41°C° 0 mm 2 mps 753 mmHg 25%
    17:00 +43°C° 0 mm 3 mps 753 mmHg 25%
    18:00 +39°C° 0 mm 3 mps 753 mmHg 30%
    19:00 +36°C° 0 mm 3 mps 753 mmHg 35%
    20:00 +34°C° 0 mm 3 mps 753 mmHg 40%
    21:00 +31°C° 0 mm 3 mps 754 mmHg 43%
    22:00 +30°C° 0 mm 3 mps 754 mmHg 46%
    23:00 +28°C° 0 mm 2 mps 754 mmHg 49%
    Show more